Regional Weather Roundup
Issued by NWS Albany, NY

Home | Current Version | Previous Version | Graphics & Text | Print | Product List | Glossary Off
Versions: 1 2 3 4 5 6 7 8 9 10 11 12 13 14 15 16 17 18 19 20 21 22 23 24 25 26 27

000
ASUS41 KALY 202010
RWRALY

NEW YORK STATE HOURLY WEATHER ROUNDUP
NATIONAL WEATHER SERVICE ALBANY NY
300 PM EST MON NOV 20 2017

NOTE: "FAIR" INDICATES FEW OR NO CLOUDS BELOW 12,000 FEET WITH NO
SIGNIFICANT WEATHER AND/OR NO OBSTRUCTIONS TO VISIBILITY.

NYZ032-033-038>043-046>054-057>066-NYZ062>081-082-084-202100-
EAST


CITY           SKY/WX    TMP DP  RH WIND       PRES   REMARKS
ALBANY         PTSUNNY   40  22  48 W14       29.94R WCI  32
GLENS FALLS    MOSUNNY   39  21  48 W9G21     29.88S WCI  33
POUGHKEEPSIE   CLOUDY    43  22  43 W18G28    29.99R
NEWBURGH       PTSUNNY   43  25  49 W21G32    30.00R
MONTGOMERY     PTSUNNY   43  24  47 W17G23    29.98S
WHITE PLAINS   MOSUNNY   44  21  40 W13G22    30.00R
ISLIP          MOSUNNY   46  21  37 W14G23    30.02R
NEW YORK CITY  MOSUNNY   48  22  35 W14G26    30.03R
CENTRAL PARK   SUNNY     46  22  38 W9G21     30.05S
$$

NYZ005>009-017-018-044>046-055-056-202100-
CENTRAL


CITY           SKY/WX    TMP DP  RH WIND       PRES   REMARKS
FULTON         MIX PCPN  35  25  66 SW12      29.94S WCI  27
SYRACUSE       FLURRIES  33  26  75 SW13      29.95S WCI  24
ROME           CLOUDY    34  26  72 W13       29.95R WCI  25
ELMIRA         SUNNY     44  27  51 SW15G25   29.96R
BINGHAMTON     CLOUDY    34  26  72 W10       29.93R WCI  26
MONTICELLO     CLOUDY    36  24  62 W12G18    29.96S WCI  28
$$

NYZ026>034-041>043-087-202100-
NORTH


CITY           SKY/WX    TMP DP  RH WIND       PRES   REMARKS
WATERTOWN      CLOUDY    33  30  88 N5        29.91R WCI  29
FORT DRUM      NOT AVBL
OGDENSBURG     CLOUDY    27  21  77 NW7       29.92S WCI  19
MASSENA        CLOUDY    25  19  78 SW8       29.94R WCI  16
SARANAC LAKE   LGT SNOW  22  19  89 VRB6      29.80S FOG     WCI  14
PLATTSBURGH    CLOUDY    27  16  63 CALM      29.91R
$$

NYZ001>004-010>016-019>021-085-202100-
WEST


CITY           SKY/WX    TMP DP  RH WIND       PRES   REMARKS
NIAGARA FALLS  PTSUNNY   44  32  62 W21G32    29.92F
BUFFALO        PTSUNNY   41  32  70 SW26G38   29.92F
DUNKIRK        SUNNY     43  27  53 SW16      29.96F
JAMESTOWN      CLOUDY    35  24  64 SW12      29.96F WCI  27
WELLSVILLE     SUNNY     42  24  49 W12G23    29.94S
ROCHESTER      CLOUDY    36  33  89 SW6       29.94F WCI  31
PENN YAN       CLOUDY    40  28  62 W8        29.94S WCI  34
$$

             KEY
       WCI = WIND CHILL INDEX
       VSB = VISIBILITY
       HX  = HEAT INDEX
$$




USA.gov is the U.S. government's official web portal to all federal, state and local government web resources and services.